User: anonymous   Login
Location: Caltech
(34.1382°N, 118.1253°W)
Time: 14:49:36
(UTC-07:00)
Language:

Meteor 2-4 Rocket - Orbit

View from above orbital plane
View from above orbital plane
View from above satellite
View from above satellite

Ground track
Ground track

The orbit data is extracted from the following two-line orbital elements,

1 11289U 79021B   17082.94644118 -.00000052 +00000-0 -35280-4 0  9996
2 11289 081.2445 247.2963 0076329 115.2902 245.6203 14.11555549958540
Epoch (UTC): 23 March 2017 22:42:52
Eccentricity: 0.0076329
inclination: 81.2445°
perigee height: 799 km
apogee height: 909 km
right ascension of ascending node: 247.2963°
argument of perigee: 115.2902°
revolutions per day: 14.11555549
mean anomaly at epoch: 245.6203°
orbit number at epoch: 95854

The dashed part of the orbit path shows where the satellite is in the earth's shadow,  

DLR